Starlink 2144

operational
NORAD ID: 47734 Int'l Des: 2021-017 Owner: SPXS Country: US Constellation: starlink
LEOCIRCULARSTARLINK_TYPE

Starlink 2144について

説明を読み込み中...

リアルタイム位置

3D地球を読み込み中...

次回通過

高度履歴

Altitude vs Time

uPlot chart will show altitude changes over time

軌道要素

1 47734U 21017N 25258.05473693 .00001023 00000-0 87591-4 0 9995
2 47734 53.0542 280.0731 0001234 83.5739 276.5390 15.06398424251273
Epoch: Sep 15, 2025 • Age: 12 hours

現在のステータス

高度 548.5 km
速度 7.59 km/s
衛星直下点 30.53°N, 119.28°W
打ち上げ日 Mar 4, 2021
運用期間 4.5 years
タイプ internet

技術仕様

分類 Payload
質量 260.00 kg
乾燥質量 248.00 kg
総質量 260.00 kg
長さ 0.20 m
直径 2.80 m
スパン 9.00 m
形状 Box + pan
製造者 SPXS
バスタイプ Starlink
フェーズステータス In Orbit
所有者/国 SPXS/US

大規模コンステレーション

Loading constellations...